Regional Weather Roundup
Issued by NWS Sterling, VA

Home | Current Version | Previous Version | Graphics & Text | Print | Product List | Glossary Off
Versions: 1 2 3 4 5 6 7 8 9 10 11 12 13 14 15 16 17 18 19 20 21 22 23 24 25 26

000
ASUS41 KLWX 310110
RWRLWX

REGIONAL WEATHER ROUNDUP
NATIONAL WEATHER SERVICE BALTIMORE MD/WASHINGTON DC
900 PM EDT THU MAR 30 2017

Note: "FAIR" indicates few or no clouds below 12,000 feet
with no significant weather and/or obstructions to visibility.
 TC=TEMPERATURE CELSIUS

 * =Non NWS site. Station does not report precipitation (e.g. rain,
    snow, etc.), thunder, or fog.

DCZ001-MDZ009-015-VAZ040>042-051-053>054-310200-
WASHINGTON METRO

CITY           SKY/WX    TMP DP  RH WIND       PRES   REMARKS
WASHINGTON NAT CLOUDY    51  40  65 S12       30.09R
DULLES         CLOUDY    51  40  65 SE8       30.05R
ANDREWS AFB    CLOUDY    48  37  65 S10       30.07R
FT BELVOIR     CLOUDY    51  39  65 SE8       30.08R
QUANTICO       CLOUDY    50  44  80 SE14      30.09R
COLLEGE PARK*  CLOUDY    50  37  60 S5        30.09R
LEESBURG*      CLOUDY    54  43  66 SE8       30.06S
MANASSAS*      CLOUDY    50  41  71 SE13      30.07R

$$

MDZ006>007-011-014-310200-
BALTIMORE METRO

CITY           SKY/WX    TMP DP  RH WIND       PRES   REMARKS
BWI AIRPORT    CLOUDY    49  40  71 E8        30.08R
MD SCIENCE CTR   N/A     50  35  56 MISG      30.10R
MARTIN STATE   CLOUDY    48  37  66 E8        30.11S
ANNAPOLIS      CLOUDY    50  42  74 SE3       30.09S
FORT MEADE*    CLOUDY    48  37  66 SE7       30.11R

$$

MDZ012-015-019>023-310200-
MARYLAND EASTERN SHORE

CITY           SKY/WX    TMP DP  RH WIND       PRES   REMARKS
OCEAN CITY     CLOUDY    44  36  73 SE10      30.14S
SALISBURY      CLOUDY    45  35  68 E12       30.12F
BAY BRIDGE AP* CLOUDY    48  37  66 SE8       30.10R
CAMBRIDGE*     CLOUDY    46  36  66 SE10      30.11R
EASTON*        MOCLDY    48  36  61 SE10G17   30.13F

$$

MDZ017>025-310200-
SOUTHERN MARYLAND

CITY           SKY/WX    TMP DP  RH WIND       PRES   REMARKS
PATUXENT RIVER CLOUDY    47  40  76 SE9       30.12R
ST INIGOES     CLOUDY    47  38  71 SE12G18   30.10R
LEONARDTOWN*   CLOUDY    46  37  71 SE10      30.12R

$$

MDZ003>005-310200-
NORTH CENTRAL MARYLAND

CITY           SKY/WX    TMP DP  RH WIND       PRES   REMARKS
FREDERICK*     NOT AVBL
HAGERSTOWN APT CLOUDY    50  34  54 SE7       30.02S
WESTMINSTER*   CLOUDY    46  36  66 SE10      30.05F

$$

MDZ501>502-310200-
WESTERN MARYLAND

CITY           SKY/WX    TMP DP  RH WIND       PRES   REMARKS
OAKLAND*       CLOUDY    43  37  81 SE18G30   29.86F
CUMBERLAND*    CLOUDY    52  34  50 SE8       29.99F

$$

VAZ025>031-310200-
SHENANDOAH VALLEY

CITY           SKY/WX    TMP DP  RH WIND       PRES   REMARKS
WINCHESTER*    CLOUDY    50  36  57 SE9       30.01F
FRONT ROYAL*   CLOUDY    52  36  54 S7        30.00S
LURAY*         CLOUDY    52  41  66 S6        30.01S
NEW MARKET*    CLOUDY    51  37  57 S6        30.00S
STAUNTON*      CLOUDY    50  38  63 SE6       30.04S
WAYNESBORO*    CLOUDY    49  40  70 CALM      30.03R

$$

WVZ021-048>050-054>055-310200-
EASTERN WEST VIRGINIA PANHANDLE

CITY           SKY/WX    TMP DP  RH WIND       PRES   REMARKS
MARTINSBURG    CLOUDY    50  37  61 SE10      30.02R
PETERSBURG*    CLOUDY    55  43  63 SE12      29.96S

$$

VAZ036>039-050-310200-
CENTRAL FOOTHILLS

CITY           SKY/WX    TMP DP  RH WIND       PRES   REMARKS
CHARLOTTESVILL CLOUDY    53  40  61 CALM      30.04R
CULPEPER*      CLOUDY    52  44  72 SE3       30.06S
ORANGE*        CLOUDY    52  41  66 CALM      30.05S
GORDONSVILLE*  CLOUDY    53  42  67 CALM      30.04R
WARRENTON*     CLOUDY    52  40  64 SE8       30.05S

$$

VAZ055>057-310200-
NORTH AND CENTRAL PIEDMONT

CITY           SKY/WX    TMP DP  RH WIND       PRES   REMARKS
FREDERICKSBRG* CLOUDY    52  44  73 SE8       30.07R
STAFFORD*      CLOUDY    50  43  76 SE9       30.11R

$$

NCZ024-NYZ072-PAZ021-071-VAZ022-071-310200-
OTHER REGIONAL OBSERVATIONS

CITY           SKY/WX    TMP DP  RH WIND       PRES   REMARKS
NEW YORK CITY  CLOUDY    45  29  53 S6        30.16R
PHILADELPHIA   CLOUDY    46  32  58 SE7       30.13F
PITTSBURGH     CLOUDY    54  42  64 E10       29.76R
ROANOKE        LGT RAIN  53  45  74 E5        30.01R
RICHMOND       CLOUDY    49  42  77 E9        30.07R
RALEIGH        MOCLDY    63  49  60 SE10      29.99S

$$

ANZ530>537-310200-
MARINE OBSERVATIONS

STATION/POSITION TIME  TEMP    WIND        PRES
                       AIR SEA DIR/SP/G
                 (UTC) (F)     (DEG/KT/KT) (MB)
THOMAS PT LIGHT  0100   48 47  180/  9/ 10   N/A
BALT KEY BRIDGE  0048   47     110/ 14/ 17 1018.8R
COVE POINT       0048   47     170/ 14/ 17 1020.2R
LEWISETTA        0048   47 54  160/ 11/ 14 1019.0R
SOLOMONS ISLAND  0036   47 49  140/ 14/ 18   N/A
PINEY POINT      0048          150/ 19/ 20   N/A

$$





USA.gov is the U.S. government's official web portal to all federal, state and local government web resources and services.